Location: 10048 Water Well
(33.8501°N, 106.8364°W)
Time: 17:35:45
(UTC+00:00)

CBERS-1 - Pass Details

Date: 11 December 2025
Orbit: 764 x 773 km, 98.8° (Epoch: 22 January)

Event Time Altitude Azimuth Distance (km) Brightness Sun altitude
Rises 13:02:59 0° 12° (NNE) 3,242 7.2 -12.2°
Reaches altitude 10° 13:05:18 10° 12° (NNE) 2,311 6.4 -11.7°
Maximum altitude 13:10:24 86° 284° (WNW) 772 4.0 -10.7°
Drops below altitude 10° 13:15:27 10° 196° (SSW) 2,292 6.5 -9.7°
Sets 13:17:44 0° 196° (SSW) 3,214 7.3 -9.3°
